"startDT [UTC]","vpos","CH4 [ppm]","stdev(CH4) [ppm]","CO2 [ppm]","stdev(CO2) [ppm]","H2O_reported [%]","stdev(H2O_reported)","CavityPressure [torr]","CavityTemp [C]","OutletValve","CH4_dry [ppm]","CO2_dry [ppm]","DasTemp [C]","EtalonTemp [C]","WarmBoxTemp [C]","MPVPosition","T_ECpre [C]","T_EC1 [C]","T_EC2 [C]","p_inlet [hPa]","p_in [hPa]","p_out [hPa]","T_inlet [C]","RH_inlet [%]","dwpt_inlet [C]","T_vent [C]","RH_vent [%]","dwpt_vent [C]","flow_vent [l min-1]","flow_inlet [l min-1]","dwpt_sample [C]","T_room [C]"
2015-07-01 00:00:00,3.0,1.87229,0.00401,395.351,5.936,0.2769,0.4352,139.944,45.000,30760.78920,1.87879,396.527,39.375,45.065,45.000,0.00,0.10,-272.71,-272.77,-0,440,-13,30.3,23.5,7.1,29.9,22.4,6.1,5.73,1.51,6.9,33.8
2015-07-01 00:01:00,3.0,1.87519,0.00042,397.007,0.052,0.0421,0.0028,139.995,45.000,30670.99809,1.87591,397.209,39.375,45.065,45.000,0.00,0.10,-272.70,-272.77,-1,439,-13,30.2,23.6,7.1,29.9,22.5,6.2,5.73,1.49,6.9,33.8
2015-07-01 00:02:00,3.0,1.87569,0.00032,397.138,0.071,0.0341,0.0031,139.999,45.000,30646.23801,1.87635,397.297,39.374,45.066,45.000,0.00,0.10,-272.69,-272.77,-1,439,-14,30.2,23.5,7.1,29.9,22.7,6.3,5.73,1.57,6.9,33.8
2015-07-01 00:03:00,3.0,1.87567,0.00033,397.328,0.056,0.0275,0.0025,140.002,45.000,30631.17748,1.87619,397.457,39.375,45.066,45.000,0.00,0.10,-272.70,-272.77,-0,439,-13,30.2,23.5,7.1,29.9,22.8,6.4,5.73,1.58,6.9,33.8
2015-07-01 00:04:00,3.0,1.87589,0.00023,397.430,0.035,0.0203,0.0025,140.000,45.000,30615.23920,1.87626,397.528,39.370,45.066,45.000,0.00,0.10,-272.70,-272.77,-0,439,-14,30.2,23.4,7.0,29.9,22.9,6.5,5.73,1.47,6.9,33.8
2015-07-01 00:05:00,3.0,1.87590,0.00043,397.463,0.030,0.0155,0.0022,139.997,45.000,30601.90408,1.87616,397.537,39.375,45.066,45.000,0.00,0.10,-272.69,-272.77,-0,439,-13,30.2,23.2,6.9,29.9,23.0,6.5,5.73,1.43,6.9,33.8
2015-07-01 00:06:00,3.0,1.87600,0.00045,397.478,0.028,0.0123,0.0023,140.004,45.000,30593.67561,1.87624,397.536,39.378,45.066,45.000,0.00,0.10,-272.70,-272.77,-0,439,-14,30.2,23.0,6.8,30.0,23.0,6.5,5.73,1.49,6.9,33.9
2015-07-01 00:07:00,3.0,1.87600,0.00024,397.506,0.026,0.0101,0.0024,139.998,45.000,30583.54335,1.87618,397.556,39.399,45.066,45.000,0.00,0.10,-272.71,-272.77,-1,439,-14,30.2,23.1,6.8,30.0,23.0,6.6,5.73,1.59,6.9,33.9
2015-07-01 00:08:00,3.0,1.87605,0.00048,397.509,0.019,0.0094,0.0023,139.996,45.000,30577.34478,1.87624,397.554,39.398,45.066,45.000,0.00,0.10,-272.70,-272.77,-1,439,-14,30.3,23.2,6.9,30.0,23.0,6.6,5.73,1.56,6.9,33.9
2015-07-01 00:09:00,3.0,1.87591,0.00033,397.528,0.031,0.0077,0.0016,139.997,45.000,30573.26939,1.87607,397.564,39.398,45.065,45.000,0.00,0.10,-272.69,-272.76,-1,440,-14,30.3,23.2,7.0,30.0,23.0,6.6,5.73,1.46,6.9,33.9
2015-07-01 00:10:00,3.0,1.87574,0.00027,397.559,0.037,0.0063,0.0018,139.997,45.000,30570.33515,1.87582,397.588,39.437,45.065,45.000,0.00,0.10,-272.70,-272.77,-1,440,-14,30.3,23.1,6.9,30.0,23.0,6.6,5.73,1.43,6.9,34.0
2015-07-01 00:11:00,3.0,1.87598,0.00033,397.539,0.031,0.0060,0.0021,139.998,45.000,30566.00702,1.87610,397.570,39.442,45.065,45.000,0.00,0.10,-272.70,-272.76,-0,440,-14,30.3,23.2,6.9,30.0,23.1,6.6,5.73,1.53,6.9,33.9
2015-07-01 00:12:00,3.0,1.87598,0.00045,397.535,0.030,0.0046,0.0020,140.002,45.000,30563.83061,1.87605,397.555,39.442,45.065,45.000,0.00,0.10,-272.70,-272.76,-0,440,-14,30.3,23.2,7.0,30.0,23.1,6.6,5.73,1.60,7.0,34.0
2015-07-01 00:13:00,3.0,1.87596,0.00036,397.563,0.028,0.0041,0.0022,140.002,45.000,30560.77996,1.87604,397.584,39.442,45.065,45.000,0.00,0.10,-272.70,-272.77,-1,440,-14,30.3,23.3,7.1,30.1,23.1,6.7,5.73,1.52,7.0,34.0
2015-07-01 00:14:00,3.0,1.87615,0.00038,397.551,0.021,0.0046,0.0017,140.000,45.000,30557.97006,1.87622,397.572,39.438,45.065,45.000,0.00,0.10,-272.71,-272.77,-1,440,-14,30.4,23.4,7.1,30.1,23.1,6.7,5.73,1.43,7.0,34.0
2015-07-01 00:15:00,3.0,1.87619,0.00027,397.561,0.039,0.0035,0.0018,139.999,45.000,30556.32958,1.87624,397.576,39.438,45.065,45.000,0.00,0.10,-272.69,-272.76,-1,440,-14,30.4,23.5,7.2,30.1,23.1,6.7,5.73,1.45,7.0,34.0
2015-07-01 00:16:00,3.0,1.87645,0.00047,397.541,0.028,0.0039,0.0018,140.002,45.000,30555.21960,1.87652,397.563,39.438,45.065,45.000,0.00,0.10,-272.70,-272.77,-1,440,-14,30.4,23.6,7.3,30.1,23.0,6.7,5.73,1.56,7.0,34.0
2015-07-01 00:17:00,3.0,1.87618,0.00035,397.539,0.030,0.0031,0.0018,140.000,45.000,30555.51122,1.87623,397.554,39.436,45.065,45.000,0.00,0.10,-272.70,-272.77,-0,441,-14,30.4,23.6,7.3,30.1,23.0,6.6,5.73,1.59,7.0,34.0
2015-07-01 00:18:00,3.0,1.87624,0.00030,397.561,0.028,0.0039,0.0020,139.999,45.000,30553.95980,1.87636,397.579,39.438,45.066,45.000,0.00,0.10,-272.69,-272.77,-0,441,-14,30.4,23.5,7.2,30.1,22.9,6.6,5.73,1.48,7.0,34.0
2015-07-01 00:19:00,3.0,1.87632,0.00039,397.582,0.029,0.0035,0.0014,140.000,45.000,30553.70151,1.87635,397.599,39.440,45.066,45.000,0.00,0.10,-272.69,-272.76,-1,441,-14,30.4,23.4,7.2,30.1,22.8,6.5,5.73,1.42,7.0,34.0
2015-07-01 00:20:00,0.0,1.88657,0.00378,384.453,5.311,1.0891,0.4251,140.055,45.000,31874.63703,1.90624,389.822,39.438,45.066,45.000,0.00,0.10,-272.70,-272.77,-6,649,-14,30.4,23.3,7.1,30.1,22.6,6.4,5.73,1.68,7.0,34.0
2015-07-01 00:21:00,0.0,1.88601,0.00095,381.850,0.157,1.3420,0.0276,140.004,45.000,31954.56498,1.91187,388.286,39.438,45.066,45.000,0.00,0.11,-272.70,-272.77,-6,649,-14,30.4,24.3,7.7,30.1,22.5,6.4,5.73,1.68,7.0,34.0
2015-07-01 00:22:00,0.0,1.88606,0.00066,381.548,0.063,1.3980,0.0085,139.998,45.000,31978.67496,1.91326,388.264,39.435,45.066,45.000,0.00,0.11,-272.70,-272.76,-6,649,-14,30.4,24.9,8.1,30.1,22.5,6.4,5.73,1.68,7.0,34.0
2015-07-01 00:23:00,0.0,1.88506,0.00113,381.561,0.050,1.3889,0.0076,140.001,45.000,31999.45624,1.91211,388.233,39.434,45.065,45.000,0.00,0.10,-272.70,-272.76,-6,649,-14,30.4,24.4,7.8,30.1,22.5,6.3,5.73,1.67,7.0,34.0
2015-07-01 00:24:00,0.0,1.88593,0.00219,381.619,0.034,1.3702,0.0099,140.002,45.000,32013.92693,1.91234,388.202,39.438,45.065,45.000,0.00,0.10,-272.70,-272.77,-6,649,-14,30.4,24.1,7.7,30.1,22.4,6.3,5.73,1.67,7.0,34.0
2015-07-01 00:25:00,0.0,1.88849,0.00195,381.458,0.100,1.3951,0.0159,140.000,45.000,32025.57923,1.91551,388.155,39.456,45.065,45.000,0.00,0.10,-272.69,-272.76,-6,649,-14,30.4,24.9,8.1,30.1,22.4,6.3,5.73,1.68,7.0,34.1
2015-07-01 00:26:00,0.0,1.88903,0.00080,381.233,0.040,1.4277,0.0049,140.000,45.000,32037.35631,1.91698,388.090,39.484,45.065,45.000,0.00,0.10,-272.70,-272.76,-6,648,-14,30.4,25.3,8.3,30.1,22.4,6.3,5.73,1.67,7.0,34.1
2015-07-01 00:27:00,0.0,1.88708,0.00121,381.113,0.080,1.4419,0.0039,140.002,45.000,32044.61431,1.91495,388.049,39.491,45.065,45.000,0.00,0.10,-272.70,-272.76,-6,648,-14,30.4,25.5,8.5,30.2,22.4,6.3,5.73,1.68,7.0,34.1
2015-07-01 00:28:00,0.0,1.88830,0.00233,380.810,0.028,1.4686,0.0182,139.998,45.000,32050.08413,1.91713,387.864,39.496,45.065,45.000,0.00,0.10,-272.70,-272.77,-6,648,-14,30.4,26.3,8.9,30.2,22.4,6.4,5.73,1.67,7.1,34.1
2015-07-01 00:29:00,0.0,1.88243,0.00079,380.915,0.043,1.4962,0.0059,140.003,45.000,32057.34263,1.91184,388.113,39.495,45.065,45.000,0.00,0.11,-272.69,-272.77,-6,648,-14,30.5,26.4,9.0,30.2,22.5,6.4,5.73,1.67,7.1,34.1
2015-07-01 00:30:00,0.0,1.88083,0.00061,381.038,0.048,1.4813,0.0046,139.998,45.000,32061.76588,1.90963,388.168,39.471,45.065,45.000,0.00,0.10,-272.70,-272.77,-6,648,-14,30.4,26.1,8.8,30.2,22.5,6.4,5.73,1.67,7.1,34.1
2015-07-01 00:31:00,0.0,1.88107,0.00049,381.095,0.049,1.4754,0.0027,140.000,45.000,32067.05175,1.90975,388.190,39.478,45.065,45.000,0.00,0.10,-272.69,-272.77,-6,648,-14,30.5,26.0,8.8,30.2,22.6,6.5,5.73,1.67,7.1,34.1
2015-07-01 00:32:00,0.0,1.88227,0.00150,381.088,0.050,1.4717,0.0060,139.998,45.000,32070.69536,1.91068,388.171,39.457,45.066,45.000,0.00,0.11,-272.69,-272.76,-6,647,-14,30.5,25.9,8.7,30.2,22.7,6.5,5.73,1.68,7.1,34.1
2015-07-01 00:33:00,0.0,1.88762,0.00176,381.125,0.047,1.4842,0.0083,140.002,45.000,32077.17363,1.91623,388.264,39.445,45.066,45.000,0.00,0.11,-272.70,-272.76,-6,648,-14,30.5,26.2,8.9,30.2,22.8,6.6,5.73,1.67,7.1,34.1
2015-07-01 00:34:00,0.0,1.89048,0.00087,381.189,0.067,1.4735,0.0080,139.999,45.000,32078.58366,1.91925,388.282,39.439,45.066,45.001,0.00,0.10,-272.70,-272.77,-6,648,-14,30.5,25.8,8.7,30.2,22.9,6.7,5.73,1.68,7.1,34.1
2015-07-01 00:35:00,0.0,1.88934,0.00129,381.129,0.080,1.4700,0.0042,140.003,45.000,32083.14594,1.91819,388.203,39.444,45.066,45.001,0.00,0.11,-272.69,-272.76,-6,648,-14,30.5,25.9,8.8,30.2,23.0,6.8,5.73,1.68,7.1,34.1
2015-07-01 00:36:00,0.0,1.88780,0.00134,381.087,0.038,1.4758,0.0026,140.000,45.000,32084.39562,1.91663,388.188,39.443,45.066,45.000,0.00,0.11,-272.69,-272.77,-6,648,-14,30.5,26.0,8.8,30.2,23.1,6.8,5.73,1.67,7.1,34.1
2015-07-01 00:37:00,0.0,1.88583,0.00107,381.079,0.052,1.4790,0.0058,140.001,45.000,32084.46503,1.91470,388.196,39.444,45.066,45.000,0.00,0.10,-272.70,-272.77,-6,648,-14,30.5,25.8,8.7,30.2,23.3,6.9,5.73,1.67,7.1,34.1
2015-07-01 00:38:00,0.0,1.88560,0.00095,381.132,0.044,1.4635,0.0057,140.002,45.000,32085.49667,1.91413,388.169,39.479,45.066,45.000,0.00,0.10,-272.70,-272.76,-7,648,-14,30.5,25.8,8.7,30.2,23.4,7.0,5.73,1.67,7.1,34.1
2015-07-01 00:39:00,0.0,1.88405,0.00076,381.104,0.051,1.4725,0.0077,140.000,45.000,32088.12138,1.91266,388.192,39.502,45.065,45.000,0.00,0.11,-272.69,-272.75,-6,648,-14,30.5,25.6,8.6,30.2,23.5,7.1,5.73,1.67,7.1,34.1
2015-07-01 00:40:00,0.0,1.88635,0.00060,381.076,0.059,1.4650,0.0132,140.003,45.000,32089.47614,1.91484,388.121,39.530,45.065,45.000,0.00,0.10,-272.70,-272.76,-6,648,-14,30.5,26.0,8.8,30.2,23.6,7.2,5.73,1.67,7.1,34.1
2015-07-01 00:41:00,0.0,1.88479,0.00070,380.876,0.064,1.5038,0.0079,140.004,45.000,32089.91645,1.91411,388.112,39.556,45.065,45.000,0.00,0.10,-272.70,-272.77,-7,648,-14,30.5,26.5,9.1,30.2,23.8,7.3,5.73,1.67,7.1,34.1
2015-07-01 00:42:00,0.0,1.88451,0.00075,380.795,0.049,1.5144,0.0057,139.998,45.000,32088.99514,1.91409,388.083,39.563,45.065,44.999,0.00,0.11,-272.69,-272.76,-6,648,-14,30.5,26.8,9.2,30.3,23.9,7.3,5.73,1.67,7.1,34.1
2015-07-01 00:43:00,0.0,1.88374,0.00098,380.758,0.041,1.5222,0.0038,139.995,45.000,32087.81253,1.91335,388.092,39.563,45.065,44.999,0.00,0.10,-272.69,-272.77,-6,648,-14,30.5,26.7,9.2,30.3,24.0,7.4,5.73,1.67,7.1,34.1
2015-07-01 00:44:00,0.0,1.88333,0.00094,380.855,0.042,1.5110,0.0045,139.999,45.000,32089.81097,1.91283,388.129,39.563,45.065,44.999,0.00,0.10,-272.70,-272.77,-6,648,-14,30.5,26.3,9.0,30.3,24.0,7.4,5.73,1.67,7.2,34.1
2015-07-01 00:45:00,0.0,1.88372,0.00098,380.932,0.043,1.4903,0.0048,140.003,45.000,32091.20496,1.91275,388.102,39.562,45.065,45.000,0.00,0.10,-272.69,-272.76,-6,648,-14,30.5,26.1,8.9,30.2,24.1,7.5,5.73,1.67,7.1,34.1
2015-07-01 00:46:00,0.0,1.88182,0.00097,381.094,0.058,1.4752,0.0118,139.997,45.000,32089.76385,1.91051,388.194,39.563,45.065,45.000,0.00,0.11,-272.69,-272.76,-6,648,-14,30.5,25.5,8.5,30.2,24.2,7.5,5.73,1.67,7.2,34.2
2015-07-01 00:47:00,0.0,1.88191,0.00067,381.187,0.046,1.4618,0.0053,139.998,45.000,32087.86666,1.91038,388.220,39.565,45.065,45.000,0.00,0.11,-272.70,-272.77,-6,648,-14,30.5,25.4,8.5,30.2,24.3,7.6,5.73,1.67,7.1,34.1
2015-07-01 00:48:00,0.0,1.88176,0.00061,381.241,0.026,1.4436,0.0050,139.996,45.000,32087.81721,1.90979,388.182,39.581,45.065,45.000,0.00,0.11,-272.70,-272.77,-6,648,-14,30.5,25.1,8.3,30.3,24.4,7.6,5.73,1.67,7.2,34.2
2015-07-01 00:49:00,0.0,1.88169,0.00055,381.212,0.042,1.4461,0.0046,140.001,45.000,32092.20263,1.90973,388.165,39.590,45.065,45.000,0.00,0.11,-272.69,-272.76,-6,648,-14,30.5,25.2,8.4,30.2,24.4,7.7,5.73,1.67,7.2,34.2
2015-07-01 00:50:00,0.0,1.88203,0.00079,381.210,0.053,1.4420,0.0034,139.998,45.000,32091.70168,1.90999,388.145,39.570,45.065,45.000,0.00,0.10,-272.70,-272.76,-6,648,-14,30.5,25.2,8.3,30.3,24.5,7.7,5.73,1.67,7.2,34.2
2015-07-01 00:51:00,0.0,1.88172,0.00042,381.148,0.038,1.4583,0.0060,140.000,45.000,32092.68534,1.91007,388.158,39.596,45.065,45.000,0.00,0.10,-272.70,-272.77,-6,648,-14,30.5,25.4,8.5,30.2,24.6,7.8,5.73,1.68,7.2,34.2
2015-07-01 00:52:00,0.0,1.88250,0.00049,381.062,0.103,1.4615,0.0078,139.997,45.000,32091.96585,1.91089,388.092,39.623,45.065,45.000,0.00,0.11,-272.70,-272.76,-6,648,-14,30.6,25.7,8.7,30.2,24.6,7.8,5.73,1.67,7.2,34.1
2015-07-01 00:53:00,0.0,1.88182,0.00066,380.720,0.131,1.4958,0.0116,140.004,45.000,32094.35623,1.91091,387.915,39.625,45.065,45.000,0.00,0.11,-272.70,-272.76,-6,647,-14,30.6,26.3,9.0,30.2,24.7,7.8,5.73,1.67,7.2,34.2
2015-07-01 00:54:00,0.0,1.88115,0.00065,380.690,0.075,1.5032,0.0035,139.999,45.000,32091.85289,1.91037,387.923,39.622,45.065,45.000,0.00,0.11,-272.70,-272.77,-6,647,-14,30.6,26.2,9.0,30.2,24.7,7.8,5.73,1.67,7.2,34.2
2015-07-01 00:55:00,0.0,1.88099,0.00043,380.870,0.056,1.4845,0.0088,139.999,45.000,32090.93115,1.90993,388.011,39.627,45.065,45.000,0.00,0.11,-272.70,-272.76,-6,648,-14,30.6,25.7,8.7,30.2,24.8,7.9,5.73,1.67,7.2,34.2
2015-07-01 00:56:00,0.0,1.88054,0.00042,380.976,0.048,1.4650,0.0030,139.996,45.000,32090.67688,1.90902,388.021,39.625,45.065,45.000,0.00,0.11,-272.69,-272.76,-6,647,-14,30.6,25.4,8.6,30.3,24.8,7.9,5.73,1.67,7.2,34.2
2015-07-01 00:57:00,0.0,1.88027,0.00056,380.977,0.022,1.4625,0.0031,139.998,45.000,32091.98619,1.90867,388.008,39.628,45.065,45.000,0.00,0.10,-272.69,-272.77,-6,647,-14,30.6,25.4,8.5,30.3,24.8,7.9,5.73,1.67,7.2,34.2
2015-07-01 00:58:00,0.0,1.88000,0.00041,380.954,0.040,1.4572,0.0030,140.000,45.000,32093.88432,1.90829,387.960,39.653,45.065,45.000,0.00,0.11,-272.70,-272.77,-7,647,-14,30.6,25.3,8.4,30.2,24.8,7.9,5.73,1.68,7.2,34.2
2015-07-01 00:59:00,0.0,1.88314,0.00224,380.962,0.050,1.4518,0.0045,139.999,45.000,32092.27609,1.91103,387.942,39.653,45.065,45.000,0.00,0.10,-272.69,-272.76,-6,648,-14,30.6,25.3,8.5,30.3,24.8,8.0,5.73,1.67,7.2,34.2
2015-07-01 01:00:00,0.0,1.88410,0.00104,380.901,0.051,1.4755,0.0087,139.998,45.000,32095.68305,1.91288,387.993,39.636,45.065,45.000,0.00,0.11,-272.70,-272.76,-7,647,-14,30.6,25.9,8.8,30.3,24.8,7.9,5.73,1.67,7.2,34.2
2015-07-01 01:01:00,0.0,1.88359,0.00065,380.864,0.037,1.4875,0.0024,140.002,45.000,32096.50982,1.91258,388.018,39.627,45.065,45.000,0.00,0.11,-272.70,-272.77,-7,647,-14,30.6,26.0,8.9,30.3,24.9,8.0,5.73,1.67,7.2,34.1
2015-07-01 01:02:00,0.0,1.88298,0.00062,380.829,0.043,1.4957,0.0047,139.998,45.000,32096.39151,1.91213,388.027,39.648,45.065,45.000,0.00,0.11,-272.69,-272.77,-7,647,-14,30.6,26.1,8.9,30.3,24.9,8.0,5.73,1.68,7.2,34.2
2015-07-01 01:03:00,0.0,1.88262,0.00043,380.851,0.057,1.4927,0.0042,140.001,45.000,32096.28225,1.91161,388.033,39.639,45.065,45.000,0.00,0.11,-272.69,-272.76,-7,648,-14,30.6,26.0,8.9,30.3,24.9,8.0,5.73,1.67,7.2,34.2
2015-07-01 01:04:00,0.0,1.88251,0.00050,380.852,0.029,1.4899,0.0037,139.999,45.000,32097.39878,1.91148,388.018,39.647,45.066,45.000,0.00,0.10,-272.70,-272.76,-7,647,-14,30.6,26.0,8.9,30.3,24.9,8.0,5.73,1.67,7.2,34.2
2015-07-01 01:05:00,0.0,1.88342,0.00048,380.841,0.045,1.4956,0.0025,140.003,45.000,32099.08732,1.91254,388.038,39.643,45.065,45.000,0.00,0.11,-272.70,-272.76,-6,648,-14,30.6,26.1,9.0,30.3,24.9,8.0,5.73,1.67,7.2,34.2
2015-07-01 01:06:00,0.0,1.88470,0.00052,380.827,0.038,1.4955,0.0021,140.004,45.000,32098.67546,1.91370,388.023,39.630,45.066,45.000,0.00,0.11,-272.70,-272.76,-6,648,-14,30.6,26.1,8.9,30.3,24.9,8.0,5.73,1.67,7.2,34.2
2015-07-01 01:07:00,0.0,1.88535,0.00045,380.741,0.038,1.5020,0.0051,140.003,45.000,32098.79563,1.91465,387.967,39.625,45.066,45.000,0.00,0.11,-272.70,-272.76,-6,648,-14,30.6,26.3,9.1,30.3,24.9,8.0,5.73,1.67,7.2,34.2
2015-07-01 01:08:00,0.0,1.88608,0.00102,380.708,0.032,1.5234,0.0079,140.002,45.000,32098.15872,1.91568,388.038,39.655,45.065,45.000,0.00,0.10,-272.70,-272.77,-6,648,-14,30.6,26.8,9.4,30.3,25.0,8.0,5.73,1.67,7.3,34.2
2015-07-01 01:09:00,0.0,1.89009,0.00104,380.717,0.040,1.5466,0.0051,140.002,45.000,32101.60471,1.92018,388.169,39.687,45.065,45.000,0.00,0.11,-272.69,-272.77,-6,648,-14,30.6,27.2,9.6,30.3,25.0,8.1,5.73,1.67,7.3,34.2
2015-07-01 01:10:00,0.0,1.88965,0.00084,380.712,0.044,1.5516,0.0033,139.996,45.000,32102.29065,1.92015,388.185,39.710,45.065,45.000,0.00,0.10,-272.69,-272.76,-6,648,-15,30.6,27.1,9.5,30.3,25.0,8.1,5.73,1.67,7.3,34.2
2015-07-01 01:11:00,0.0,1.88849,0.00079,380.856,0.038,1.5450,0.0023,139.999,45.000,32102.18051,1.91863,388.299,39.712,45.065,45.000,0.00,0.10,-272.70,-272.77,-6,648,-14,30.6,27.0,9.5,30.3,25.0,8.1,5.73,1.67,7.2,34.2
2015-07-01 01:12:00,0.0,1.88812,0.00178,381.130,0.065,1.5417,0.0039,139.996,45.000,32100.83420,1.91852,388.562,39.697,45.065,45.000,0.00,0.11,-272.70,-272.76,-6,647,-13,30.6,27.1,9.5,30.3,25.0,8.1,5.73,1.67,7.3,34.2
2015-07-01 01:13:00,0.0,1.88317,0.00085,380.780,0.121,1.5613,0.0053,140.006,45.000,32104.11019,1.91371,388.312,39.687,45.065,45.000,0.00,0.11,-272.69,-272.76,-7,647,-14,30.6,27.4,9.7,30.3,25.1,8.1,5.73,1.67,7.3,34.2
2015-07-01 01:14:00,0.0,1.88103,0.00103,380.627,0.051,1.5635,0.0042,140.001,45.000,32102.33079,1.91163,388.165,39.688,45.065,45.000,0.00,0.11,-272.70,-272.77,-6,647,-14,30.6,27.3,9.6,30.3,25.1,8.1,5.73,1.68,7.3,34.2
2015-07-01 01:15:00,0.0,1.88180,0.00091,380.929,0.106,1.5484,0.0043,139.995,45.000,32100.71005,1.91185,388.386,39.697,45.065,45.000,0.00,0.11,-272.70,-272.77,-6,647,-14,30.6,26.9,9.5,30.3,25.1,8.1,5.73,1.67,7.3,34.2
2015-07-01 01:16:00,0.0,1.88123,0.00084,381.040,0.048,1.5428,0.0023,139.999,45.000,32102.24951,1.91142,388.481,39.692,45.065,45.000,0.00,0.11,-272.70,-272.77,-7,647,-14,30.7,26.9,9.4,30.3,25.1,8.2,5.73,1.67,7.3,34.2
2015-07-01 01:17:00,0.0,1.88149,0.00040,381.051,0.050,1.5384,0.0035,140.001,45.000,32099.18245,1.91134,388.469,39.688,45.065,45.000,0.00,0.10,-272.70,-272.76,-7,647,-14,30.6,26.8,9.4,30.3,25.2,8.2,5.73,1.67,7.3,34.2
2015-07-01 01:18:00,0.0,1.88000,0.00088,380.999,0.048,1.5378,0.0020,139.999,45.000,32098.86505,1.90998,388.413,39.688,45.065,45.000,0.00,0.10,-272.70,-272.76,-7,647,-14,30.6,26.7,9.3,30.3,25.2,8.2,5.73,1.67,7.3,34.2
2015-07-01 01:19:00,0.0,1.88041,0.00055,381.051,0.030,1.5120,0.0107,140.002,45.000,32099.21312,1.90989,388.340,39.690,45.065,45.000,0.00,0.11,-272.70,-272.76,-7,647,-14,30.6,26.1,9.0,30.3,25.3,8.3,5.73,1.68,7.3,34.2
2015-07-01 01:20:00,0.0,1.88112,0.00100,381.326,0.142,1.4865,0.0097,140.000,45.000,32097.40662,1.90993,388.478,39.701,45.065,45.000,0.00,0.10,-272.70,-272.76,-7,647,-14,30.6,25.6,8.7,30.3,25.4,8.3,5.73,1.67,7.3,34.2
2015-07-01 01:21:00,0.0,1.88226,0.00072,381.668,0.127,1.4854,0.0021,139.997,45.000,32096.47732,1.91118,388.830,39.741,45.065,45.000,0.00,0.10,-272.70,-272.77,-7,647,-14,30.7,25.8,8.8,30.3,25.4,8.3,5.73,1.68,7.3,34.2
2015-07-01 01:22:00,0.0,1.88168,0.00058,381.639,0.072,1.4886,0.0047,139.998,45.000,32096.69505,1.91057,388.811,39.745,45.065,45.000,0.00,0.11,-272.69,-272.76,-7,647,-14,30.7,25.7,8.8,30.3,25.5,8.4,5.73,1.67,7.3,34.3
2015-07-01 01:23:00,0.0,1.88140,0.00078,381.760,0.052,1.4700,0.0069,139.996,45.000,32095.20492,1.91010,388.845,39.750,45.065,45.000,0.00,0.10,-272.69,-272.76,-7,647,-14,30.7,25.2,8.5,30.3,25.5,8.4,5.73,1.68,7.3,34.3
2015-07-01 01:24:00,0.0,1.87944,0.00040,381.818,0.077,1.4273,0.0220,139.997,45.000,32095.85739,1.90716,388.695,39.750,45.065,45.000,0.00,0.10,-272.70,-272.77,-7,647,-14,30.6,24.0,7.8,30.4,25.6,8.4,5.73,1.67,7.3,34.3
2015-07-01 01:25:00,0.0,1.88138,0.00053,382.245,0.080,1.3591,0.0079,140.000,45.000,32096.72043,1.90764,388.779,39.747,45.065,45.000,0.00,0.10,-272.70,-272.77,-7,647,-14,30.7,23.1,7.2,30.3,25.6,8.5,5.73,1.68,7.3,34.3
2015-07-01 01:26:00,0.0,1.88127,0.00047,382.381,0.053,1.3250,0.0078,140.002,45.000,32096.17864,1.90695,388.748,39.704,45.065,45.000,0.00,0.11,-272.69,-272.76,-7,647,-14,30.7,22.6,6.9,30.3,25.7,8.5,5.73,1.68,7.3,34.3
2015-07-01 01:27:00,0.0,1.88055,0.00041,382.336,0.045,1.3190,0.0048,139.999,45.000,32096.51855,1.90603,388.673,39.688,45.065,45.000,0.00,0.11,-272.70,-272.77,-7,647,-14,30.7,22.6,6.9,30.4,25.7,8.5,5.73,1.68,7.3,34.3
2015-07-01 01:28:00,0.0,1.88143,0.00068,382.376,0.045,1.3217,0.0043,139.999,45.000,32096.91832,1.90692,388.715,39.686,45.066,45.001,0.00,0.10,-272.70,-272.77,-7,648,-14,30.7,22.7,7.0,30.4,25.7,8.5,5.73,1.68,7.3,34.3
2015-07-01 01:29:00,0.0,1.88249,0.00046,382.432,0.054,1.3382,0.0084,139.998,45.000,32094.47419,1.90833,388.862,39.665,45.066,45.000,0.00,0.10,-272.70,-272.77,-7,647,-14,30.7,23.1,7.2,30.4,25.7,8.5,5.73,1.68,7.3,34.3
2015-07-01 01:30:00,0.0,1.88225,0.00059,382.306,0.072,1.3543,0.0044,139.998,45.000,32095.55244,1.90849,388.814,39.640,45.066,45.001,0.00,0.11,-272.70,-272.76,-6,647,-14,30.7,23.3,7.3,30.4,25.7,8.5,5.73,1.68,7.3,34.3
2015-07-01 01:31:00,0.0,1.88153,0.00065,382.345,0.076,1.3497,0.0065,139.998,45.000,32096.48734,1.90769,388.832,39.625,45.066,45.001,0.00,0.10,-272.70,-272.76,-6,647,-14,30.7,23.3,7.3,30.4,25.7,8.5,5.73,1.67,7.3,34.3
2015-07-01 01:32:00,0.0,1.88097,0.00044,382.302,0.092,1.3574,0.0063,140.003,45.000,32099.22551,1.90721,388.825,39.634,45.066,45.001,0.00,0.11,-272.70,-272.77,-7,647,-14,30.7,23.4,7.4,30.4,25.6,8.5,5.73,1.67,7.3,34.3
2015-07-01 01:33:00,0.0,1.88166,0.00037,382.324,0.046,1.3715,0.0097,140.004,45.000,32102.13969,1.90817,388.919,39.654,45.066,45.001,0.00,0.11,-272.70,-272.76,-7,647,-14,30.7,23.8,7.6,30.4,25.5,8.4,5.73,1.68,7.3,34.3
2015-07-01 01:34:00,0.0,1.88203,0.00052,382.258,0.069,1.3965,0.0078,140.000,45.000,32096.73064,1.90903,388.972,39.654,45.065,45.000,0.00,0.10,-272.70,-272.77,-7,647,-14,30.7,24.1,7.9,30.4,25.4,8.4,5.73,1.67,7.3,34.2
2015-07-01 01:35:00,0.0,1.88224,0.00060,382.193,0.131,1.4133,0.0115,140.001,45.000,32096.03714,1.90967,389.000,39.634,45.065,45.000,0.00,0.10,-272.69,-272.76,-7,647,-14,30.7,24.4,8.0,30.4,25.3,8.3,5.73,1.67,7.3,34.2
2015-07-01 01:36:00,0.0,1.88216,0.00100,382.110,0.129,1.4038,0.0084,140.001,45.000,32097.03138,1.90947,388.870,39.676,45.065,45.000,0.00,0.11,-272.69,-272.76,-7,647,-14,30.7,24.0,7.8,30.4,25.2,8.2,5.73,1.68,7.4,34.2
2015-07-01 01:37:00,0.0,1.88188,0.00115,382.210,0.087,1.3498,0.0177,140.002,45.000,32098.68156,1.90792,388.703,39.688,45.065,45.000,0.00,0.10,-272.70,-272.76,-7,647,-14,30.7,23.0,7.1,30.4,25.1,8.2,5.73,1.67,7.4,34.2
2015-07-01 01:38:00,0.0,1.88168,0.00063,382.278,0.056,1.3480,0.0106,140.006,45.000,32100.06485,1.90782,388.752,39.694,45.065,45.000,0.00,0.10,-272.70,-272.77,-7,647,-14,30.7,23.3,7.4,30.4,25.0,8.1,5.73,1.67,7.4,34.2
2015-07-01 01:39:00,0.0,1.88142,0.00053,382.170,0.064,1.3751,0.0053,140.003,45.000,32099.55674,1.90800,388.779,39.704,45.065,45.000,0.00,0.11,-272.69,-272.76,-7,647,-14,30.7,23.8,7.6,30.4,24.9,8.1,5.73,1.67,7.4,34.2
2015-07-01 01:40:00,0.0,1.88204,0.00041,382.149,0.058,1.3981,0.0095,139.996,45.000,32098.35934,1.90910,388.875,39.691,45.065,45.000,0.00,0.11,-272.69,-272.77,-7,647,-14,30.7,24.3,7.9,30.4,24.8,8.0,5.73,1.67,7.4,34.3
2015-07-01 01:41:00,0.0,1.88245,0.00047,382.093,0.057,1.4190,0.0069,139.995,45.000,32098.20580,1.90997,388.924,39.690,45.065,45.000,0.00,0.10,-272.70,-272.77,-7,647,-14,30.7,24.6,8.1,30.4,24.7,8.0,5.73,1.67,7.4,34.3
2015-07-01 01:42:00,0.0,1.88253,0.00073,381.941,0.050,1.4335,0.0034,139.999,45.000,32099.60679,1.91041,388.846,39.688,45.065,45.000,0.00,0.10,-272.70,-272.77,-7,647,-14,30.7,24.7,8.2,30.4,24.7,7.9,5.73,1.67,7.4,34.3
2015-07-01 01:43:00,0.0,1.88253,0.00071,381.958,0.071,1.4157,0.0070,139.998,45.000,32098.71467,1.90992,388.768,39.684,45.065,45.000,0.00,0.11,-272.69,-272.76,-7,647,-14,30.7,24.3,7.9,30.4,24.6,7.9,5.73,1.67,7.4,34.3
2015-07-01 01:44:00,0.0,1.88304,0.00065,382.026,0.052,1.4155,0.0085,139.999,45.000,32100.74360,1.91057,388.839,39.688,45.065,45.000,0.00,0.10,-272.70,-272.76,-7,647,-14,30.7,24.5,8.1,30.4,24.5,7.9,5.73,1.67,7.4,34.2
2015-07-01 01:45:00,0.0,1.88299,0.00056,382.023,0.056,1.4373,0.0077,140.001,45.000,32101.46914,1.91083,388.943,39.688,45.065,45.000,0.00,0.10,-272.70,-272.76,-7,648,-14,30.7,25.0,8.4,30.4,24.5,7.8,5.73,1.67,7.4,34.2
2015-07-01 01:46:00,0.0,1.88354,0.00087,381.864,0.096,1.4704,0.0062,139.998,45.000,32101.69793,1.91199,388.943,39.687,45.065,45.000,0.00,0.11,-272.70,-272.76,-6,647,-14,30.7,25.4,8.7,30.4,24.5,7.8,5.73,1.67,7.4,34.2
2015-07-01 01:47:00,0.0,1.89460,0.00556,382.043,0.185,1.4750,0.0054,140.001,45.000,32104.36674,1.92269,389.162,39.674,45.065,45.000,0.00,0.11,-272.70,-272.76,-7,648,-14,30.7,25.6,8.7,30.4,24.4,7.8,5.73,1.67,7.4,34.2